Flag for Poland Weather past 2 weeks in Gliwice, Poland

Now
59 °F

Drizzle. Fog.


Feels Like: 58 °F
Forecast: 57 / 74 °F
Wind: 8 mph from East

Location: Katowice Airport

Current Time: Sep 2, 2014 at 7:42:15 AM

Latest Report: Sep 2, 2014 at 7:00 AM


Visibility: 1 mi

Pressure: 29.98 "Hg

Humidity: 94%

Dew point: 57 °F

Location of GliwiceLocation

Historic Weather in Gliwice — Graph

°F

Gliwice temperature yesterday

Maximum temperature yesterday: 64 °F (at 3:00 PM)
Minimum temperature yesterday: 57 °F (at 3:00 AM)
Average temperature yesterday: 60 °F

Past Weeks' High & Low Weather Summary

 TemperatureHumidityPressure
High73 °F (Aug 18, 1:00 PM)100% (Aug 20, 12:30 AM)30.09 "Hg (Aug 20, 12:30 AM)
Low43 °F (Aug 22, 4:30 AM)38% (Aug 29, 4:30 PM)29.74 "Hg (Aug 26, 12:00 PM)
Average59 °F79%29.96 "Hg
* Reported Aug 18 7:00 AM — Sep 2 7:00 AM, Gliwice, Weather by CustomWeather, © 2014

Note: Actual official high and low records may vary slightly from our data, if they occured in-between our weather recording intervals... More about our weather records

Advertising

Gliwice weather history for previous 24 hours

 ConditionsComfort  
Time TempWeatherWind HumidityBarometerVisibility
7:00 AM
Sep 2
59 °FDrizzle. Fog.8 mph94%29.98 "Hg1 mi
6:30 AM59 °FDrizzle. Fog.6 mph94%29.98 "Hg1 mi
6:00 AM59 °FDrizzle. Fog.7 mph94%29.98 "Hg1 mi
5:30 AM59 °FDrizzle. Fog.6 mph94%29.95 "Hg1 mi
5:00 AM59 °FDrizzle. Fog.8 mph94%29.95 "Hg1 mi
4:30 AM59 °FDrizzle. Fog.7 mph94%29.95 "Hg1 mi
4:00 AM59 °FDrizzle. Fog.8 mph94%29.95 "Hg2 mi
3:30 AM59 °FFog.6 mph94%29.95 "Hg2 mi
3:00 AM59 °FFog.7 mph94%29.95 "Hg2 mi
2:30 AM59 °FLight rain. Fog.6 mph94%29.95 "Hg2 mi
2:00 AM59 °FLight rain. Fog.7 mph94%29.95 "Hg2 mi
1:30 AM59 °FLight rain. Fog.9 mph94%29.95 "Hg2 mi
1:00 AM59 °FLight rain. Fog.8 mph100%29.98 "Hg2 mi
12:30 AM59 °FLight rain. Fog.9 mph100%29.98 "Hg2 mi
12:00 AM59 °FLight rain. Partly cloudy.8 mph100%29.98 "Hg4 mi
11:30 PM
Sep 1
59 °FLight rain. Fog.8 mph100%29.98 "Hg3 mi
11:00 PM59 °FLight rain. Fog.9 mph100%29.98 "Hg2 mi
10:30 PM59 °FSprinkles. Fog.9 mph100%29.98 "Hg2 mi
10:00 PM61 °FSprinkles. Partly cloudy.8 mph94%29.98 "Hg4 mi
9:30 PM61 °FSprinkles. Partly cloudy.10 mph94%29.98 "Hg4 mi
9:00 PM61 °FPartly cloudy.8 mph94%29.98 "Hg4 mi
8:30 PM61 °FPartly cloudy.6 mph94%29.98 "Hg4 mi
8:00 PM61 °FPartly sunny.6 mph94%29.98 "Hg4 mi
7:30 PM63 °FBroken clouds.9 mph94%29.95 "Hg5 mi
7:00 PM63 °FBroken clouds.7 mph94%29.95 "Hg5 mi
6:30 PM63 °FBroken clouds.7 mph94%29.95 "HgN/A
6:00 PM64 °FBroken clouds.7 mph88%29.95 "HgN/A
5:30 PM64 °FBroken clouds.6 mph88%29.95 "HgN/A
5:00 PM64 °FBroken clouds.7 mph88%29.95 "HgN/A
4:30 PM64 °FScattered clouds.6 mph88%29.95 "HgN/A
4:00 PM64 °FScattered clouds.6 mph88%29.95 "HgN/A
3:30 PM64 °FScattered clouds.6 mph88%29.95 "HgN/A
3:00 PM64 °FPartly sunny.8 mph88%29.95 "HgN/A
2:30 PM63 °FBroken clouds.7 mph94%29.95 "Hg5 mi
2:00 PM63 °FBroken clouds.7 mph94%29.95 "Hg5 mi
1:30 PM63 °FBroken clouds.6 mph94%29.95 "Hg5 mi
1:00 PM63 °FBroken clouds.8 mph94%29.95 "Hg5 mi
12:30 PM61 °FDrizzle. Fog.7 mph100%29.95 "Hg2 mi
12:00 PM61 °FDrizzle. Fog.5 mph94%29.95 "Hg1 mi
11:30 AM61 °FFog.6 mph94%29.95 "Hg2 mi
11:00 AM61 °FFog.6 mph94%29.95 "Hg3 mi
10:30 AM61 °FBroken clouds.6 mph94%29.92 "Hg4 mi
10:00 AM59 °FCloudy.6 mph100%29.92 "Hg4 mi
9:30 AM61 °FMostly cloudy.6 mph94%29.92 "Hg4 mi
9:00 AM59 °FMostly cloudy.6 mph100%29.92 "Hg4 mi
8:30 AM59 °FFog.7 mph100%29.92 "Hg3 mi
8:00 AM59 °FFog.3 mph100%29.89 "Hg1 mi
7:30 AM59 °FFog.5 mph94%29.89 "Hg1 mi
7:00 AM57 °FFog.3 mph100%29.89 "Hg1 mi
Weather by CustomWeather, © 2014

See weather overviewHow to use our weather pages